Location: Trebic
(49.2170°N, 15.8830°E)
Time: 11:36:36
(UTC+02:00)

Transit 2A Rocket - Pass Details

Date: 27 July 2019
Orbit: 590 x 913 km, 66.7° (Epoch: 24 August)

Event Time Altitude Azimuth Distance (km) Brightness Sun altitude
Rises 11:46:17 0° 319° (NW) 3,147 7.8 56.3°
Reaches altitude 10° 11:48:52 10° 311° (NW) 2,167 7.1 56.5°
Maximum altitude 11:53:19 37° 245° (WSW) 1,025 6.1 56.9°
Drops below altitude 10° 11:57:27 10° 178° (S) 1,995 7.8 57.2°
Sets 11:59:45 0° 170° (S) 2,865 8.4 57.4°
